| time (UTC) | temp F | wind direction | speed knots | gust knots | rain 1hr in | rain 24hr in | rain mn in | humidity % | barometer mb |
| 20260505192729 | 68 | 291 | 1.7 | 5.2 | 0.00 | 0.00 | 0.00 | 46 | |
| 20260505192228 | 68 | 301 | 2.6 | 5.2 | 0.00 | 0.00 | 0.00 | 48 | |
| 20260505191749 | 67 | 264 | 1.7 | 5.2 | 0.00 | 0.00 | 0.00 | 50 | |
| 20260505191252 | 65 | 216 | 1.7 | 5.2 | 0.00 | 0.00 | 0.00 | 53 | |
| 20260505190732 | 64 | 277 | 2.6 | 5.2 | 0.00 | 0.00 | 0.00 | 52 | |
| 20260505190253 | 65 | 162 | 1.7 | 6.1 | 0.00 | 0.00 | 0.00 | 52 | |
| 20260505185753 | 64 | 286 | 3.5 | 9.6 | 0.00 | 0.00 | 0.00 | 52 | |
| 20260505185252 | 65 | 70 | 3.5 | 7.0 | 0.00 | 0.00 | 0.00 | 52 | |
| 20260505184753 | 65 | 53 | 2.6 | 8.7 | 0.00 | 0.00 | 0.00 | 53 | |
| 20260505184235 | 65 | 64 | 5.2 | 8.7 | 0.00 | 0.00 | 0.00 | 52 | |
| 20260505183738 | 65 | 222 | 3.5 | 6.1 | 0.00 | 0.00 | 0.00 | 51 | |
| 20260505183237 | 66 | 125 | 3.5 | 6.1 | 0.00 | 0.00 | 0.00 | 52 | |
| 20260505182736 | 65 | 104 | 1.7 | 7.0 | 0.00 | 0.00 | 0.00 | 53 | |
| 20260505182246 | 66 | 70 | 3.5 | 7.0 | 0.00 | 0.00 | 0.00 | 52 | |
| 20260505181806 | 66 | 215 | 1.7 | 4.3 | 0.00 | 0.00 | 0.00 | 53 | |
| 20260505181315 | 65 | 25 | 1.7 | 7.0 | 0.00 | 0.00 | 0.00 | 54 | |
| 20260505180735 | 65 | 120 | 2.6 | 7.0 | 0.00 | 0.00 | 0.00 | 54 | |
| 20260505180250 | 65 | 110 | 2.6 | 7.0 | 0.00 | 0.00 | 0.00 | 55 | |
| 20260505175750 | 64 | 297 | 1.7 | 6.1 | 0.00 | 0.00 | 0.00 | 56 | |
| 20260505175233 | 63 | 103 | 3.5 | 6.1 | 0.00 | 0.00 | 0.00 | 56 | |
| 20260505174753 | 63 | 104 | 2.6 | 6.1 | 0.00 | 0.00 | 0.00 | 57 | |
| 20260505174253 | 63 | 48 | 4.3 | 7.0 | 0.00 | 0.00 | 0.00 | 57 | |
| 20260505173734 | 62 | 114 | 1.7 | 4.3 | 0.00 | 0.00 | 0.00 | 57 | |
| 20260505173233 | 62 | 8 | 2.6 | 6.1 | 0.00 | 0.00 | 0.00 | 57 | |
| 20260505172754 | 62 | 76 | 4.3 | 6.1 | 0.00 | 0.00 | 0.00 | 58 | |
| 20260505172250 | 62 | 87 | 3.5 | 5.2 | 0.00 | 0.00 | 0.00 | 59 | |
| 20260505171730 | 61 | 50 | 1.7 | 4.3 | 0.00 | 0.00 | 0.00 | 59 | |
| 20260505171236 | 61 | 66 | 2.6 | 6.1 | 0.00 | 0.00 | 0.00 | 59 | |
| 20260505170737 | 61 | 104 | 3.5 | 6.1 | 0.00 | 0.00 | 0.00 | 59 | |
| 20260505170232 | 61 | 110 | 2.6 | 4.3 | 0.00 | 0.00 | 0.00 | 59 | |
| 20260505165732 | 60 | 58 | 2.6 | 4.3 | 0.00 | 0.00 | 0.00 | 61 | |
| 20260505165241 | 59 | 272 | 1.7 | 3.5 | 0.00 | 0.00 | 0.00 | 62 | |
| 20260505164740 | 59 | 131 | 0.9 | 1.7 | 0.00 | 0.00 | 0.00 | 63 | |
| 20260505164241 | 59 | 121 | 0.9 | 2.6 | 0.00 | 0.00 | 0.00 | 65 | |
| 20260505163739 | 58 | 113 | 0.9 | 2.6 | 0.00 | 0.00 | 0.00 | 65 | |
| 20260505163229 | 58 | 84 | 0.9 | 3.5 | 0.00 | 0.00 | 0.00 | 66 | |
| 20260505162747 | 58 | 45 | 2.6 | 3.5 | 0.00 | 0.00 | 0.00 | 66 | |
| 20260505162250 | 58 | 354 | 0.0 | 3.5 | 0.00 | 0.00 | 0.00 | 67 | |
| 20260505161752 | 58 | 196 | 0.0 | 3.5 | 0.00 | 0.00 | 0.00 | 67 | |
| 20260505161231 | 58 | 320 | 1.7 | 3.5 | 0.00 | 0.00 | 0.00 | 67 | |
| 20260505160751 | 58 | 75 | 0.0 | 2.6 | 0.00 | 0.00 | 0.00 | 68 | |
| 20260505160231 | 58 | 36 | 0.9 | 2.6 | 0.00 | 0.00 | 0.00 | 68 | |
| 20260505153236 | 57 | 171 | 0.0 | 2.6 | 0.00 | 0.00 | 0.00 | 70 | |
| 20260505152737 | 57 | 127 | 0.9 | 2.6 | 0.00 | 0.00 | 0.00 | 70 | |
| 20260505152246 | 57 | 161 | 0.9 | 1.7 | 0.00 | 0.00 | 0.00 | 71 | |
| 20260505151729 | 56 | 198 | 0.0 | 1.7 | 0.00 | 0.00 | 0.00 | 71 | |
| 20260505151231 | 56 | 154 | 0.0 | 2.6 | 0.00 | 0.00 | 0.00 | 71 | |
| 20260505150732 | 56 | 234 | 0.9 | 2.6 | 0.00 | 0.00 | 0.00 | 72 | |
| 20260505150235 | 56 | 302 | 0.0 | 0.9 | 0.00 | 0.00 | 0.00 | 73 | |
| 20260505140234 | 51 | 112 | 0.0 | 0.0 | 0.00 | 0.00 | 0.00 | 79 | |
| 20260505130254 | 49 | 332 | 0.0 | 0.0 | 0.00 | 0.00 | 0.00 | 79 | |
| 20260505124727 | 49 | 338 | 0.0 | 0.0 | 0.00 | 0.00 | 0.00 | 78 | |
| 20260505124245 | 49 | 338 | 0.0 | 0.0 | 0.00 | 0.00 | 0.00 | 78 | |
| 20260505123748 | 49 | 338 | 0.0 | 0.0 | 0.00 | 0.00 | 0.00 | 78 | |
| 20260505123235 | 49 | 338 | 0.0 | 0.0 | 0.00 | 0.00 | 0.00 | 78 | |
| 20260505122756 | 50 | 338 | 0.0 | 0.0 | 0.00 | 0.00 | 0.00 | 78 | |
| 20260505122232 | 50 | 338 | 0.0 | 0.0 | 0.00 | 0.00 | 0.00 | 78 | |
| 20260505121751 | 50 | 338 | 0.0 | 0.0 | 0.00 | 0.00 | 0.00 | 78 | |
| 20260505121246 | 50 | 338 | 0.0 | 0.0 | 0.00 | 0.00 | 0.00 | 78 | |
| 20260505120748 | 50 | 338 | 0.0 | 0.0 | 0.00 | 0.00 | 0.00 | 78 | |
| 20260505120230 | 50 | 338 | 0.0 | 0.0 | 0.00 | 0.00 | 0.00 | 77 | |
| 20260505115730 | 50 | 338 | 0.0 | 0.0 | 0.00 | 0.00 | 0.00 | 77 | |
| 20260505115229 | 50 | 338 | 0.0 | 0.0 | 0.00 | 0.00 | 0.00 | 77 | |
| 20260505114729 | 50 | 338 | 0.0 | 0.0 | 0.00 | 0.00 | 0.00 | 77 | |
| 20260505114231 | 50 | 338 | 0.0 | 0.0 | 0.00 | 0.00 | 0.00 | 77 | |
| 20260505113753 | 51 | 338 | 0.0 | 0.0 | 0.00 | 0.00 | 0.00 | 77 | |
| 20260505113235 | 51 | 338 | 0.0 | 0.0 | 0.00 | 0.00 | 0.00 | 77 | |
| 20260505112755 | 51 | 338 | 0.0 | 0.0 | 0.00 | 0.00 | 0.00 | 77 | |
| 20260505112229 | 51 | 343 | 0.0 | 0.0 | 0.00 | 0.00 | 0.00 | 77 | |
| 20260505111731 | 51 | 343 | 0.0 | 0.0 | 0.00 | 0.00 | 0.00 | 77 | |
| 20260505111251 | 52 | 343 | 0.0 | 2.6 | 0.00 | 0.00 | 0.00 | 77 | |
| 20260505110730 | 52 | 343 | 0.0 | 2.6 | 0.00 | 0.00 | 0.00 | 77 | |
| 20260505110233 | 52 | 314 | 0.9 | 2.6 | 0.00 | 0.00 | 0.00 | 77 | |
| 20260505101748 | 53 | 217 | 0.0 | 0.0 | 0.00 | 0.00 | 0.00 | 75 | |
| 20260505101251 | 53 | 217 | 0.0 | 0.0 | 0.00 | 0.00 | 0.00 | 75 | |
| 20260505100732 | 54 | 217 | 0.0 | 1.7 | 0.00 | 0.00 | 0.00 | 75 | |
| 20260505100238 | 54 | 218 | 0.0 | 1.7 | 0.00 | 0.00 | 0.00 | 75 | |
| 20260505095737 | 54 | 218 | 0.9 | 1.7 | 0.00 | 0.00 | 0.00 | 74 | |
| 20260505095241 | 54 | 296 | 0.0 | 0.9 | 0.00 | 0.00 | 0.00 | 74 | |
| 20260505094735 | 54 | 324 | 0.0 | 0.0 | 0.00 | 0.00 | 0.00 | 73 | |
| 20260505094234 | 54 | 324 | 0.0 | 0.0 | 0.00 | 0.00 | 0.00 | 73 | |
| 20260505093733 | 54 | 324 | 0.0 | 1.7 | 0.00 | 0.00 | 0.00 | 73 | |
| 20260505093232 | 54 | 324 | 0.0 | 1.7 | 0.00 | 0.00 | 0.00 | 73 | |
| 20260505092734 | 55 | 324 | 0.0 | 1.7 | 0.00 | 0.00 | 0.00 | 73 | |
| 20260505092235 | 55 | 324 | 0.0 | 1.7 | 0.00 | 0.00 | 0.00 | 73 | |
| 20260505091732 | 55 | 324 | 0.0 | 1.7 | 0.00 | 0.00 | 0.00 | 73 | |
| 20260505091240 | 55 | 320 | 0.9 | 1.7 | 0.00 | 0.00 | 0.00 | 73 | |
| 20260505090738 | 55 | 315 | 0.0 | 0.9 | 0.00 | 0.00 | 0.00 | 73 | |
| 20260505090307 | 55 | 327 | 0.0 | 1.7 | 0.00 | 0.00 | 0.00 | 73 | |
| 20260505085746 | 55 | 327 | 0.0 | 2.6 | 0.00 | 0.00 | 0.00 | 73 | |
| 20260505085310 | 55 | 327 | 0.9 | 3.5 | 0.00 | 0.00 | 0.00 | 73 | |
| 20260505084751 | 55 | 322 | 1.7 | 3.5 | 0.00 | 0.00 | 0.00 | 73 | |
| 20260505084246 | 56 | 314 | 0.0 | 2.6 | 0.00 | 0.00 | 0.00 | 73 | |
| 20260505083749 | 56 | 284 | 0.0 | 2.6 | 0.00 | 0.00 | 0.00 | 73 | |
| 20260505083234 | 56 | 289 | 1.7 | 2.6 | 0.00 | 0.00 | 0.00 | 73 | |
| 20260505082755 | 56 | 306 | 0.9 | 3.5 | 0.00 | 0.00 | 0.00 | 73 | |
| 20260505082250 | 56 | 264 | 0.9 | 4.3 | 0.00 | 0.00 | 0.00 | 73 | |
| 20260505081813 | 56 | 281 | 1.7 | 4.3 | 0.00 | 0.00 | 0.00 | 72 | |
| 20260505081232 | 56 | 310 | 1.7 | 5.2 | 0.00 | 0.00 | 0.00 | 72 | |
| 20260505080735 | 56 | 314 | 3.5 | 5.2 | 0.00 | 0.00 | 0.00 | 72 | |
| 20260505080250 | 56 | 322 | 3.5 | 5.2 | 0.00 | 0.00 | 0.00 | 72 | |
| 20260505075732 | 56 | 307 | 2.6 | 4.3 | 0.00 | 0.00 | 0.00 | 72 | |
| 20260505075253 | 56 | 302 | 1.7 | 4.3 | 0.00 | 0.00 | 0.00 | 72 | |
| 20260505074751 | 56 | 312 | 1.7 | 5.2 | 0.00 | 0.00 | 0.00 | 71 | |
| 20260505074233 | 56 | 301 | 3.5 | 5.2 | 0.00 | 0.00 | 0.00 | 71 | |
| 20260505073731 | 56 | 280 | 1.7 | 3.5 | 0.00 | 0.00 | 0.00 | 71 | |
| 20260505073248 | 56 | 310 | 0.9 | 1.7 | 0.00 | 0.00 | 0.00 | 71 | |
| 20260505072730 | 56 | 280 | 0.0 | 1.7 | 0.00 | 0.00 | 0.00 | 71 | |
| 20260505072234 | 56 | 242 | 0.9 | 2.6 | 0.00 | 0.00 | 0.00 | 71 | |
| 20260505071736 | 56 | 237 | 0.9 | 2.6 | 0.00 | 0.00 | 0.00 | 71 | |
| 20260505071243 | 56 | 315 | 0.9 | 2.6 | 0.00 | 0.00 | 0.00 | 71 | |
| 20260505070744 | 56 | 289 | 0.9 | 3.5 | 0.00 | 0.00 | 0.00 | 72 | |
| 20260505070227 | 56 | 308 | 0.9 | 3.5 | 0.00 | 0.00 | 0.00 | 72 | |
| 20260505065729 | 56 | 299 | 1.7 | 3.5 | 0.00 | 0.00 | 0.00 | 72 | |
| 20260505065249 | 56 | 249 | 0.9 | 3.5 | 0.00 | 0.00 | 0.00 | 72 | |
| 20260505064812 | 56 | 263 | 1.7 | 3.5 | 0.00 | 0.00 | 0.00 | 73 | |
| 20260505064234 | 56 | 240 | 0.9 | 4.3 | 0.00 | 0.00 | 0.00 | 73 | |
| 20260505063755 | 56 | 285 | 2.6 | 4.3 | 0.00 | 0.00 | 0.00 | 73 | |
| 20260505063252 | 56 | 293 | 1.7 | 4.3 | 0.00 | 0.00 | 0.00 | 73 | |
| 20260505062750 | 56 | 303 | 0.9 | 4.3 | 0.00 | 0.00 | 0.00 | 73 | |
| 20260505062230 | 56 | 299 | 1.7 | 2.6 | 0.00 | 0.00 | 0.00 | 74 | |
| 20260505061751 | 56 | 304 | 0.9 | 4.3 | 0.00 | 0.00 | 0.00 | 74 | |
| 20260505061252 | 56 | 219 | 2.6 | 4.3 | 0.00 | 0.00 | 0.00 | 75 | |
| 20260505060732 | 56 | 237 | 1.7 | 4.3 | 0.00 | 0.00 | 0.00 | 75 | |
| 20260505060235 | 56 | 260 | 0.9 | 2.6 | 0.00 | 0.00 | 0.00 | 76 | |
| 20260505055732 | 56 | 250 | 0.0 | 3.5 | 0.00 | 0.00 | 0.00 | 76 | |
| 20260505055308 | 56 | 229 | 1.7 | 3.5 | 0.00 | 0.00 | 0.00 | 76 | |
| 20260505054749 | 55 | 212 | 1.7 | 3.5 | 0.00 | 0.00 | 0.00 | 76 | |
| 20260505054231 | 55 | 278 | 0.0 | 3.5 | 0.00 | 0.00 | 0.00 | 76 | |
| 20260505053732 | 55 | 250 | 0.0 | 3.5 | 0.00 | 0.00 | 0.00 | 76 | |
| 20260505053235 | 55 | 321 | 1.7 | 2.6 | 0.00 | 0.00 | 0.00 | 76 | |
| 20260505052732 | 56 | 256 | 0.0 | 1.7 | 0.00 | 0.00 | 0.00 | 75 | |
| 20260505052247 | 56 | 256 | 0.0 | 2.6 | 0.00 | 0.00 | 0.00 | 75 | |
| 20260505051729 | 56 | 255 | 0.0 | 2.6 | 0.00 | 0.00 | 0.00 | 75 | |
| 20260505051307 | 56 | 293 | 0.9 | 2.6 | 0.00 | 0.00 | 0.00 | 74 | |
| 20260505050748 | 56 | 293 | 0.9 | 2.6 | 0.00 | 0.00 | 0.00 | 74 | |
| 20260505050228 | 56 | 290 | 0.9 | 1.7 | 0.00 | 0.00 | 0.00 | 73 | |
| 20260505041732 | 58 | 256 | 0.9 | 6.1 | 0.00 | 0.00 | 0.00 | 71 | |
| 20260505041247 | 58 | 290 | 1.7 | 6.1 | 0.00 | 0.00 | 0.00 | 71 | |
| 20260505040747 | 59 | 295 | 2.6 | 5.2 | 0.00 | 0.00 | 0.00 | 71 | |
| 20260505040229 | 59 | 278 | 1.7 | 6.1 | 0.00 | 0.00 | 0.00 | 70 | |
| 20260505035750 | 59 | 236 | 1.7 | 5.2 | 0.00 | 0.00 | 0.00 | 70 | |
| 20260505035247 | 59 | 270 | 2.6 | 5.2 | 0.00 | 0.00 | 0.00 | 70 | |
| 20260505034730 | 59 | 309 | 0.9 | 4.3 | 0.00 | 0.00 | 0.00 | 70 | |
| 20260505034233 | 59 | 276 | 0.9 | 7.0 | 0.00 | 0.00 | 0.00 | 69 | |
| 20260505033753 | 59 | 258 | 2.6 | 5.2 | 0.00 | 0.00 | 0.00 | 68 | |
| 20260505033235 | 59 | 228 | 2.6 | 5.2 | 0.00 | 0.00 | 0.00 | 68 | |
| 20260505032737 | 59 | 221 | 3.5 | 5.2 | 0.00 | 0.00 | 0.00 | 68 | |
| 20260505032227 | 59 | 245 | 2.6 | 6.1 | 0.00 | 0.00 | 0.00 | 67 | |
| 20260505031729 | 59 | 224 | 3.5 | 6.1 | 0.00 | 0.00 | 0.00 | 67 | |
| 20260505031249 | 59 | 233 | 1.7 | 7.0 | 0.00 | 0.00 | 0.00 | 66 | |
| 20260505030731 | 59 | 289 | 3.5 | 7.0 | 0.00 | 0.00 | 0.00 | 66 | |
| 20260505030229 | 59 | 253 | 1.7 | 5.2 | 0.00 | 0.00 | 0.00 | 66 | |
| 20260505025751 | 59 | 237 | 1.7 | 5.2 | 0.00 | 0.00 | 0.00 | 65 | |
| 20260505025230 | 59 | 266 | 1.7 | 7.0 | 0.00 | 0.00 | 0.00 | 65 | |
| 20260505024732 | 59 | 220 | 3.5 | 7.8 | 0.00 | 0.00 | 0.00 | 65 | |
| 20260505024232 | 59 | 212 | 2.6 | 8.7 | 0.00 | 0.00 | 0.00 | 66 | |
| 20260505023733 | 60 | 243 | 4.3 | 8.7 | 0.00 | 0.00 | 0.00 | 65 | |
| 20260505023245 | 60 | 249 | 6.1 | 7.8 | 0.00 | 0.00 | 0.00 | 64 | |
| 20260505022747 | 60 | 236 | 1.7 | 7.0 | 0.00 | 0.00 | 0.00 | 64 | |
| 20260505022229 | 61 | 212 | 2.6 | 7.0 | 0.00 | 0.00 | 0.00 | 63 | |
| 20260505021753 | 61 | 273 | 2.6 | 6.1 | 0.00 | 0.00 | 0.00 | 61 | |
| 20260505021229 | 62 | 242 | 2.6 | 7.8 | 0.00 | 0.00 | 0.00 | 61 | |
| 20260505020733 | 62 | 283 | 0.9 | 7.0 | 0.00 | 0.00 | 0.00 | 61 | |
| 20260505020243 | 62 | 273 | 1.7 | 7.0 | 0.00 | 0.00 | 0.00 | 61 | |
| 20260505015746 | 62 | 307 | 1.7 | 8.7 | 0.00 | 0.00 | 0.00 | 60 | |
| 20260505015229 | 62 | 304 | 4.3 | 8.7 | 0.00 | 0.00 | 0.00 | 60 | |
| 20260505014730 | 62 | 235 | 1.7 | 9.6 | 0.00 | 0.00 | 0.00 | 60 | |
| 20260505014247 | 62 | 277 | 2.6 | 9.6 | 0.00 | 0.00 | 0.00 | 60 | |
| 20260505013729 | 62 | 236 | 6.1 | 9.6 | 0.00 | 0.00 | 0.00 | 60 | |
| 20260505013305 | 62 | 239 | 5.2 | 9.6 | 0.00 | 0.00 | 0.00 | 59 | |
| 20260505012806 | 62 | 272 | 5.2 | 12.2 | 0.00 | 0.00 | 0.00 | 59 | |
| 20260505012230 | 62 | 240 | 7.8 | 12.2 | 0.00 | 0.00 | 0.00 | 59 | |
| 20260505011752 | 62 | 254 | 7.0 | 12.2 | 0.00 | 0.00 | 0.00 | 60 | |
| 20260505011231 | 62 | 231 | 6.1 | 11.3 | 0.00 | 0.00 | 0.00 | 59 | |
| 20260505010728 | 63 | 250 | 5.2 | 11.3 | 0.00 | 0.00 | 0.00 | 59 | |
| 20260505010251 | 63 | 212 | 4.3 | 13.0 | 0.00 | 0.00 | 0.00 | 59 | |
| 20260505005810 | 63 | 226 | 7.0 | 13.0 | 0.00 | 0.00 | 0.00 | 59 | |
| 20260505005231 | 63 | 218 | 4.3 | 9.6 | 0.00 | 0.00 | 0.00 | 60 | |
| 20260505004732 | 63 | 245 | 5.2 | 9.6 | 0.00 | 0.00 | 0.00 | 60 | |
| 20260505004251 | 63 | 221 | 4.3 | 9.6 | 0.00 | 0.00 | 0.00 | 60 | |
| 20260505003752 | 63 | 242 | 3.5 | 9.6 | 0.00 | 0.00 | 0.00 | 60 | |
| 20260505003227 | 63 | 241 | 4.3 | 9.6 | 0.00 | 0.00 | 0.00 | 60 | |
| 20260505002749 | 63 | 201 | 4.3 | 8.7 | 0.00 | 0.00 | 0.00 | 60 | |
| 20260505002229 | 63 | 236 | 4.3 | 12.2 | 0.00 | 0.00 | 0.00 | 60 | |
| 20260505001730 | 63 | 230 | 7.0 | 13.0 | 0.00 | 0.00 | 0.00 | 60 | |
| 20260505001250 | 64 | 214 | 7.0 | 13.0 | 0.00 | 0.00 | 0.00 | 59 | |
| 20260505000751 | 64 | 246 | 3.5 | 10.4 | 0.00 | 0.00 | 0.00 | 59 | |
| 20260505000234 | 64 | 187 | 4.3 | 12.2 | 0.00 | 0.00 | 0.00 | 57 | |
| 20260504235754 | 65 | 239 | 6.1 | 12.2 | 0.00 | 0.00 | 0.00 | 56 | |
| 20260504235235 | 64 | 297 | 4.3 | 11.3 | 0.00 | 0.00 | 0.00 | 56 | |
| 20260504234736 | 64 | 226 | 5.2 | 10.4 | 0.00 | 0.00 | 0.00 | 57 | |
| 20260504234234 | 64 | 235 | 5.2 | 12.2 | 0.00 | 0.00 | 0.00 | 58 | |
| 20260504233757 | 63 | 193 | 5.2 | 12.2 | 0.00 | 0.00 | 0.00 | 59 | |
| 20260504233245 | 63 | 201 | 6.1 | 10.4 | 0.00 | 0.00 | 0.00 | 59 | |
| 20260504232747 | 63 | 278 | 4.3 | 9.6 | 0.00 | 0.00 | 0.00 | 59 | |
| 20260504232228 | 64 | 266 | 3.5 | 9.6 | 0.00 | 0.00 | 0.00 | 60 | |
| 20260504231732 | 64 | 195 | 5.2 | 9.6 | 0.00 | 0.00 | 0.00 | 59 | |
| 20260504231230 | 64 | 231 | 5.2 | 9.6 | 0.00 | 0.00 | 0.00 | 59 | |
| 20260504230732 | 64 | 203 | 2.6 | 10.4 | 0.00 | 0.00 | 0.00 | 59 | |
| 20260504230231 | 64 | 56 | 3.5 | 11.3 | 0.00 | 0.00 | 0.00 | 58 | |
| 20260504225732 | 64 | 186 | 5.2 | 11.3 | 0.00 | 0.00 | 0.00 | 57 | |
| 20260504225232 | 65 | 200 | 5.2 | 10.4 | 0.00 | 0.00 | 0.00 | 56 | |
| 20260504224733 | 64 | 201 | 4.3 | 8.7 | 0.00 | 0.00 | 0.00 | 56 | |
| 20260504224252 | 64 | 201 | 4.3 | 8.7 | 0.00 | 0.00 | 0.00 | 56 | |
| 20260504223731 | 65 | 239 | 3.5 | 13.9 | 0.00 | 0.00 | 0.00 | 55 | |
| 20260504223247 | 65 | 239 | 5.2 | 13.9 | 0.00 | 0.00 | 0.00 | 54 | |
| 20260504222748 | 65 | 258 | 5.2 | 9.6 | 0.00 | 0.00 | 0.00 | 53 | |
| 20260504222232 | 65 | 322 | 3.5 | 9.6 | 0.00 | 0.00 | 0.00 | 53 | |
| 20260504221754 | 66 | 291 | 5.2 | 9.6 | 0.00 | 0.00 | 0.00 | 52 | |
| 20260504221306 | 66 | 269 | 4.3 | 8.7 | 0.00 | 0.00 | 0.00 | 52 | |
| 20260504220747 | 66 | 224 | 6.1 | 11.3 | 0.00 | 0.00 | 0.00 | 51 | |
| 20260504220250 | 66 | 177 | 5.2 | 13.9 | 0.00 | 0.00 | 0.00 | 50 | |
| 20260504215729 | 66 | 201 | 7.0 | 15.6 | 0.00 | 0.00 | 0.00 | 49 | |
| 20260504215234 | 66 | 243 | 4.3 | 13.0 | 0.00 | 0.00 | 0.00 | 49 | |
| 20260504214734 | 66 | 114 | 5.2 | 12.2 | 0.00 | 0.00 | 0.00 | 50 | |
| 20260504214230 | 66 | 244 | 6.1 | 12.2 | 0.00 | 0.00 | 0.00 | 49 | |
| 20260504213728 | 66 | 244 | 6.1 | 12.2 | 0.00 | 0.00 | 0.00 | 49 | |
| 20260504213246 | 66 | 253 | 2.6 | 10.4 | 0.00 | 0.00 | 0.00 | 52 | |
| 20260504212809 | 66 | 235 | 3.5 | 7.8 | 0.00 | 0.00 | 0.00 | 51 | |
| 20260504212231 | 66 | 139 | 2.6 | 7.8 | 0.00 | 0.00 | 0.00 | 51 | |
| 20260504211754 | 67 | 155 | 3.5 | 11.3 | 0.00 | 0.00 | 0.00 | 50 | |
| 20260504211236 | 67 | 233 | 5.2 | 11.3 | 0.00 | 0.00 | 0.00 | 48 | |
| 20260504210755 | 68 | 231 | 3.5 | 7.8 | 0.00 | 0.00 | 0.00 | 41 | |
| 20260504210310 | 68 | 239 | 3.5 | 9.6 | 0.00 | 0.00 | 0.00 | 46 | |
| 20260504205750 | 69 | 199 | 5.2 | 9.6 | 0.00 | 0.00 | 0.00 | 44 | |
| 20260504205232 | 71 | 219 | 2.6 | 8.7 | 0.00 | 0.00 | 0.00 | 38 | |
| 20260504204734 | 70 | 223 | 4.3 | 8.7 | 0.00 | 0.00 | 0.00 | 39 | |
| 20260504204238 | 69 | 214 | 1.7 | 7.8 | 0.00 | 0.00 | 0.00 | 44 | |
| 20260504203755 | 68 | 279 | 2.6 | 9.6 | 0.00 | 0.00 | 0.00 | 45 | |
| 20260504203237 | 69 | 215 | 5.2 | 8.7 | 0.00 | 0.00 | 0.00 | 43 | |
| 20260504202737 | 69 | 251 | 4.3 | 8.7 | 0.00 | 0.00 | 0.00 | 44 | |
| 20260504202246 | 68 | 235 | 2.6 | 6.1 | 0.00 | 0.00 | 0.00 | 48 | |
| 20260504201729 | 68 | 87 | 3.5 | 6.1 | 0.00 | 0.00 | 0.00 | 48 | |
| 20260504201251 | 67 | 185 | 3.5 | 7.0 | 0.00 | 0.00 | 0.00 | 50 | |
| 20260504200733 | 67 | 155 | 1.7 | 12.2 | 0.00 | 0.00 | 0.00 | 43 | |
| 20260504200243 | 67 | 222 | 7.8 | 12.2 | 0.00 | 0.00 | 0.00 | 42 | |
| 20260504195745 | 68 | 222 | 5.2 | 10.4 | 0.00 | 0.00 | 0.00 | 42 | |
| 20260504195248 | 68 | 234 | 5.2 | 13.0 | 0.00 | 0.00 | 0.00 | 42 | |
| 20260504194751 | 68 | 241 | 7.0 | 13.0 | 0.00 | 0.00 | 0.00 | 42 | |
| 20260504194229 | 68 | 239 | 2.6 | 7.0 | 0.00 | 0.00 | 0.00 | 43 | |
| 20260504193730 | 68 | 224 | 3.5 | 7.8 | 0.00 | 0.00 | 0.00 | 43 | |
| 20260504193249 | 67 | 212 | 4.3 | 9.6 | 0.00 | 0.00 | 0.00 | 44 | |
| 20260504192810 | 67 | 209 | 5.2 | 11.3 | 0.00 | 0.00 | 0.00 | 45 |